Time,TemperatureF,DewpointF,PressureIn,WindDirection,WindDirectionDegrees,WindSpeedMPH,WindSpeedGustMPH,Humidity,HourlyPrecipIn,Conditions,Clouds,dailyrainin,SoftwareType,DateUTC
2013-02-11 00:05:00,66.1,60.8,30.17,ESE,107,0.0,0.0,83,0.00,,,0.00,Wunderground v.1.15,2013-02-11 05:05:00,
2013-02-11 00:15:00,66.1,61.1,30.16,East,101,0.0,2.0,84,0.00,,,0.00,Wunderground v.1.15,2013-02-11 05:15:00,
2013-02-11 00:25:00,65.9,60.9,30.16,ENE,65,0.0,0.0,84,0.00,,,0.00,Wunderground v.1.15,2013-02-11 05:25:00,
2013-02-11 00:30:00,65.9,60.9,30.16,SE,128,0.0,0.0,84,0.00,,,0.00,Wunderground v.1.15,2013-02-11 05:30:00,
2013-02-11 00:35:00,65.8,60.8,30.16,East,84,0.0,2.0,84,0.00,,,0.00,Wunderground v.1.15,2013-02-11 05:35:00,
2013-02-11 00:45:00,65.7,60.7,30.16,ESE,109,1.0,1.0,84,0.00,,,0.00,Wunderground v.1.15,2013-02-11 05:45:00,
2013-02-11 00:50:00,65.6,60.6,30.16,SE,124,0.0,1.0,84,0.00,,,0.00,Wunderground v.1.15,2013-02-11 05:50:00,
2013-02-11 01:00:00,65.5,60.9,30.16,SE,128,0.0,0.0,85,0.00,,,0.00,Wunderground v.1.15,2013-02-11 06:00:00,
2013-02-11 01:05:00,65.5,60.9,30.16,SE,136,1.0,2.0,85,0.00,,,0.00,Wunderground v.1.15,2013-02-11 06:05:00,
2013-02-11 01:15:00,65.4,60.8,30.16,ENE,78,0.0,4.0,85,0.00,,,0.00,Wunderground v.1.15,2013-02-11 06:15:00,
2013-02-11 01:25:00,65.4,60.8,30.16,ESE,111,0.0,4.0,85,0.00,,,0.00,Wunderground v.1.15,2013-02-11 06:25:00,
2013-02-11 01:30:00,65.4,60.8,30.17,ESE,116,0.0,4.0,85,0.00,,,0.00,Wunderground v.1.15,2013-02-11 06:30:00,
2013-02-11 01:40:00,65.3,60.7,30.16,SE,125,0.0,4.0,85,0.00,,,0.00,Wunderground v.1.15,2013-02-11 06:40:00,
2013-02-11 01:50:00,65.3,60.7,30.16,SE,125,0.0,4.0,85,0.00,,,0.00,Wunderground v.1.15,2013-02-11 06:50:00,
2013-02-11 01:55:00,65.2,60.9,30.16,SE,125,0.0,4.0,86,0.00,,,0.00,Wunderground v.1.15,2013-02-11 06:55:00,
2013-02-11 02:00:00,65.1,60.8,30.16,NE,49,0.0,4.0,86,0.00,,,0.00,Wunderground v.1.15,2013-02-11 07:00:00,
2013-02-11 02:10:00,65.0,60.7,30.16,ENE,72,0.0,4.0,86,0.00,,,0.00,Wunderground v.1.15,2013-02-11 07:10:00,
2013-02-11 02:15:00,64.9,60.6,30.15,ESE,119,0.0,4.0,86,0.00,,,0.00,Wunderground v.1.15,2013-02-11 07:15:00,
2013-02-11 02:20:00,64.9,60.6,30.15,ESE,119,0.0,4.0,86,0.00,,,0.00,Wunderground v.1.15,2013-02-11 07:20:00,
2013-02-11 02:30:00,64.7,60.4,30.15,ESE,121,1.0,1.0,86,0.00,,,0.00,Wunderground v.1.15,2013-02-11 07:30:00,
2013-02-11 02:35:00,64.6,60.3,30.14,ESE,121,1.0,4.0,86,0.00,,,0.00,Wunderground v.1.15,2013-02-11 07:35:00,
2013-02-11 02:45:00,64.3,60.3,30.14,ESE,121,0.0,4.0,87,0.00,,,0.00,Wunderground v.1.15,2013-02-11 07:45:00,
2013-02-11 02:50:00,64.2,60.2,30.14,ESE,121,0.0,4.0,87,0.00,,,0.00,Wunderground v.1.15,2013-02-11 07:50:00,
2013-02-11 03:00:00,64.0,60.1,30.14,ESE,120,1.0,1.0,87,0.00,,,0.00,Wunderground v.1.15,2013-02-11 08:00:00,
2013-02-11 03:05:00,64.0,60.1,30.14,ESE,120,1.0,4.0,87,0.00,,,0.00,Wunderground v.1.15,2013-02-11 08:05:00,
2013-02-11 03:15:00,63.8,59.9,30.13,ESE,120,0.0,4.0,87,0.00,,,0.00,Wunderground v.1.15,2013-02-11 08:15:00,
2013-02-11 03:25:00,63.7,60.1,30.13,ESE,110,0.0,4.0,88,0.00,,,0.00,Wunderground v.1.15,2013-02-11 08:25:00,
2013-02-11 03:35:00,63.6,60.0,30.13,SE,129,1.0,4.0,88,0.00,,,0.00,Wunderground v.1.15,2013-02-11 08:35:00,
2013-02-11 03:40:00,63.5,59.9,30.13,SE,138,1.0,1.0,88,0.00,,,0.00,Wunderground v.1.15,2013-02-11 08:40:00,
2013-02-11 03:50:00,63.4,59.8,30.13,ESE,123,1.0,1.0,88,0.00,,,0.00,Wunderground v.1.15,2013-02-11 08:50:00,
2013-02-11 04:00:00,63.4,59.8,30.12,SE,130,1.0,1.0,88,0.00,,,0.00,Wunderground v.1.15,2013-02-11 09:00:00,
2013-02-11 04:10:00,63.4,59.8,30.12,ESE,118,1.0,4.0,88,0.00,,,0.00,Wunderground v.1.15,2013-02-11 09:10:00,
2013-02-11 04:15:00,63.5,59.9,30.12,ESE,113,1.0,4.0,88,0.00,,,0.00,Wunderground v.1.15,2013-02-11 09:15:00,
2013-02-11 04:25:00,63.7,60.1,30.12,SE,141,1.0,4.0,88,0.00,,,0.00,Wunderground v.1.15,2013-02-11 09:25:00,
2013-02-11 04:35:00,63.7,60.1,30.13,ESE,119,0.0,4.0,88,0.00,,,0.00,Wunderground v.1.15,2013-02-11 09:35:00,
2013-02-11 04:40:00,63.8,60.2,30.12,SE,129,1.0,1.0,88,0.00,,,0.00,Wunderground v.1.15,2013-02-11 09:40:00,
2013-02-11 04:50:00,63.9,60.3,30.12,SE,129,0.0,4.0,88,0.00,,,0.00,Wunderground v.1.15,2013-02-11 09:50:00,
2013-02-11 05:00:00,64.0,60.4,30.12,ESE,121,1.0,1.0,88,0.00,,,0.00,Wunderground v.1.15,2013-02-11 10:00:00,
2013-02-11 05:05:00,64.0,60.4,30.12,ESE,111,1.0,4.0,88,0.00,,,0.00,Wunderground v.1.15,2013-02-11 10:05:00,
2013-02-11 05:15:00,64.0,60.4,30.12,SE,128,0.0,3.0,88,0.00,,,0.00,Wunderground v.1.15,2013-02-11 10:15:00,
2013-02-11 05:20:00,64.0,60.4,30.13,SE,136,1.0,4.0,88,0.00,,,0.00,Wunderground v.1.15,2013-02-11 10:20:00,
2013-02-11 05:30:00,63.9,60.3,30.13,ESE,119,1.0,1.0,88,0.00,,,0.00,Wunderground v.1.15,2013-02-11 10:30:00,
2013-02-11 05:35:00,63.8,60.2,30.13,ESE,121,1.0,4.0,88,0.00,,,0.00,Wunderground v.1.15,2013-02-11 10:35:00,
2013-02-11 05:40:00,63.8,60.2,30.13,ESE,121,1.0,1.0,88,0.00,,,0.00,Wunderground v.1.15,2013-02-11 10:40:00,
2013-02-11 05:45:00,63.7,60.1,30.13,ESE,120,0.0,4.0,88,0.00,,,0.00,Wunderground v.1.15,2013-02-11 10:45:00,
2013-02-11 05:55:00,63.6,60.0,30.14,ESE,120,0.0,4.0,88,0.00,,,0.00,Wunderground v.1.15,2013-02-11 10:55:00,
2013-02-11 06:00:00,63.6,60.0,30.14,ESE,120,0.0,4.0,88,0.00,,,0.00,Wunderground v.1.15,2013-02-11 11:00:00,
2013-02-11 06:05:00,63.5,59.9,30.15,ESE,120,0.0,4.0,88,0.00,,,0.00,Wunderground v.1.15,2013-02-11 11:05:00,
2013-02-11 06:10:00,63.5,59.9,30.15,ESE,120,0.0,4.0,88,0.00,,,0.00,Wunderground v.1.15,2013-02-11 11:10:00,
2013-02-11 06:15:00,63.4,59.8,30.15,ESE,120,0.0,4.0,88,0.00,,,0.00,Wunderground v.1.15,2013-02-11 11:15:00,
2013-02-11 06:20:00,63.4,59.8,30.15,ESE,120,0.0,4.0,88,0.00,,,0.00,Wunderground v.1.15,2013-02-11 11:20:00,
2013-02-11 06:30:00,63.2,59.9,30.16,ESE,120,0.0,4.0,89,0.00,,,0.00,Wunderground v.1.15,2013-02-11 11:30:00,
2013-02-11 06:35:00,63.1,59.8,30.16,ESE,120,0.0,4.0,89,0.00,,,0.00,Wunderground v.1.15,2013-02-11 11:35:00,
2013-02-11 06:40:00,63.0,59.7,30.16,ESE,120,0.0,4.0,89,0.00,,,0.00,Wunderground v.1.15,2013-02-11 11:40:00,
2013-02-11 06:45:00,62.9,59.6,30.16,ESE,120,0.0,4.0,89,0.00,,,0.00,Wunderground v.1.15,2013-02-11 11:45:00,
2013-02-11 06:50:00,62.7,59.4,30.16,ESE,120,0.0,4.0,89,0.00,,,0.00,Wunderground v.1.15,2013-02-11 11:50:00,
2013-02-11 07:00:00,62.6,59.3,30.17,ESE,120,0.0,4.0,89,0.00,,,0.00,Wunderground v.1.15,2013-02-11 12:00:00,
2013-02-11 07:05:00,62.6,59.3,30.17,ESE,120,0.0,4.0,89,0.00,,,0.00,Wunderground v.1.15,2013-02-11 12:05:00,
2013-02-11 07:10:00,62.5,59.2,30.17,ESE,120,0.0,4.0,89,0.00,,,0.00,Wunderground v.1.15,2013-02-11 12:10:00,
2013-02-11 07:15:00,62.5,59.2,30.17,ESE,120,0.0,4.0,89,0.00,,,0.00,Wunderground v.1.15,2013-02-11 12:15:00,
2013-02-11 07:20:00,62.4,59.1,30.17,ESE,120,0.0,4.0,89,0.00,,,0.00,Wunderground v.1.15,2013-02-11 12:20:00,
2013-02-11 07:25:00,62.3,59.0,30.17,ESE,120,0.0,4.0,89,0.00,,,0.00,Wunderground v.1.15,2013-02-11 12:25:00,
2013-02-11 07:35:00,62.3,59.0,30.17,ESE,120,0.0,4.0,89,0.00,,,0.00,Wunderground v.1.15,2013-02-11 12:35:00,
2013-02-11 07:40:00,62.3,59.0,30.17,ESE,120,0.0,4.0,89,0.00,,,0.00,Wunderground v.1.15,2013-02-11 12:40:00,
2013-02-11 07:45:00,62.4,59.1,30.17,ESE,120,0.0,4.0,89,0.00,,,0.00,Wunderground v.1.15,2013-02-11 12:45:00,
2013-02-11 07:50:00,62.5,59.5,30.17,ESE,120,0.0,4.0,90,0.00,,,0.00,Wunderground v.1.15,2013-02-11 12:50:00,
2013-02-11 07:55:00,62.7,59.7,30.17,East,100,0.0,4.0,90,0.00,,,0.00,Wunderground v.1.15,2013-02-11 12:55:00,
2013-02-11 08:00:00,63.0,59.7,30.17,ESE,115,0.0,4.0,89,0.00,,,0.00,Wunderground v.1.15,2013-02-11 13:00:00,
2013-02-11 08:05:00,63.3,60.3,30.17,ESE,115,0.0,4.0,90,0.00,,,0.00,Wunderground v.1.15,2013-02-11 13:05:00,
2013-02-11 08:10:00,63.6,60.3,30.17,ESE,114,0.0,4.0,89,0.00,,,0.00,Wunderground v.1.15,2013-02-11 13:10:00,
2013-02-11 08:15:00,64.0,60.7,30.17,ESE,113,0.0,4.0,89,0.00,,,0.00,Wunderground v.1.15,2013-02-11 13:15:00,
2013-02-11 08:25:00,64.7,61.4,30.18,East,97,2.0,4.0,89,0.00,,,0.00,Wunderground v.1.15,2013-02-11 13:25:00,
2013-02-11 08:30:00,65.2,61.6,30.18,SE,132,1.0,1.0,88,0.00,,,0.00,Wunderground v.1.15,2013-02-11 13:30:00,
2013-02-11 08:40:00,66.0,62.0,30.18,East,85,1.0,1.0,87,0.00,,,0.00,Wunderground v.1.15,2013-02-11 13:40:00,
2013-02-11 08:45:00,66.4,62.4,30.18,SE,139,2.0,2.0,87,0.00,,,0.00,Wunderground v.1.15,2013-02-11 13:45:00,
2013-02-11 08:50:00,66.8,62.5,30.18,SE,126,3.0,3.0,86,0.00,,,0.00,Wunderground v.1.15,2013-02-11 13:50:00,
2013-02-11 08:55:00,67.3,63.0,30.18,East,99,3.0,4.0,86,0.00,,,0.00,Wunderground v.1.15,2013-02-11 13:55:00,
2013-02-11 09:05:00,68.4,63.4,30.18,SE,130,2.0,5.0,84,0.00,,,0.00,Wunderground v.1.15,2013-02-11 14:05:00,
2013-02-11 09:10:00,68.7,63.7,30.18,East,85,3.0,4.0,84,0.00,,,0.00,Wunderground v.1.15,2013-02-11 14:10:00,
2013-02-11 09:15:00,69.2,63.8,30.19,SSW,212,4.0,4.0,83,0.00,,,0.00,Wunderground v.1.15,2013-02-11 14:15:00,
2013-02-11 09:20:00,69.8,64.4,30.19,SE,129,4.0,5.0,83,0.00,,,0.00,Wunderground v.1.15,2013-02-11 14:20:00,
2013-02-11 09:30:00,70.8,64.7,30.19,SE,130,3.0,4.0,81,0.00,,,0.00,Wunderground v.1.15,2013-02-11 14:30:00,
2013-02-11 09:40:00,71.7,65.2,30.19,SSE,154,3.0,3.0,80,0.00,,,0.00,Wunderground v.1.15,2013-02-11 14:40:00,
2013-02-11 09:45:00,72.2,65.3,30.19,SE,141,3.0,4.0,79,0.00,,,0.00,Wunderground v.1.15,2013-02-11 14:45:00,
2013-02-11 09:50:00,72.6,65.3,30.19,South,170,4.0,9.0,78,0.00,,,0.00,Wunderground v.1.15,2013-02-11 14:50:00,
2013-02-11 09:55:00,73.0,65.7,30.19,SE,135,4.0,9.0,78,0.00,,,0.00,Wunderground v.1.15,2013-02-11 14:55:00,
2013-02-11 10:05:00,73.4,65.4,30.19,SSE,154,6.0,6.0,76,0.00,,,0.00,Wunderground v.1.15,2013-02-11 15:05:00,
2013-02-11 10:10:00,73.7,65.3,30.19,SE,138,6.0,10.0,75,0.00,,,0.00,Wunderground v.1.15,2013-02-11 15:10:00,
2013-02-11 10:20:00,74.6,65.8,30.18,SE,132,6.0,6.0,74,0.00,,,0.00,Wunderground v.1.15,2013-02-11 15:20:00,
2013-02-11 10:30:00,75.4,65.7,30.19,ESE,109,5.0,5.0,72,0.00,,,0.00,Wunderground v.1.15,2013-02-11 15:30:00,
2013-02-11 10:40:00,75.8,66.1,30.18,SSE,150,5.0,5.0,72,0.00,,,0.00,Wunderground v.1.15,2013-02-11 15:40:00,
2013-02-11 10:45:00,76.4,66.3,30.18,ENE,66,4.0,5.0,71,0.00,,,0.00,Wunderground v.1.15,2013-02-11 15:45:00,
2013-02-11 10:50:00,76.5,66.0,30.18,ESE,103,5.0,5.0,70,0.00,,,0.00,Wunderground v.1.15,2013-02-11 15:50:00,
2013-02-11 11:00:00,76.8,65.9,30.18,SSE,149,6.0,13.0,69,0.00,,,0.00,Wunderground v.1.15,2013-02-11 16:00:00,
2013-02-11 11:10:00,76.8,65.9,30.18,SSE,150,7.0,7.0,69,0.00,,,0.00,Wunderground v.1.15,2013-02-11 16:10:00,
2013-02-11 11:15:00,77.0,66.0,30.18,SSW,197,8.0,10.0,69,0.00,,,0.00,Wunderground v.1.15,2013-02-11 16:15:00,
2013-02-11 11:20:00,77.0,66.0,30.17,SSW,196,9.0,10.0,69,0.00,,,0.00,Wunderground v.1.15,2013-02-11 16:20:00,
2013-02-11 11:25:00,77.3,66.3,30.17,SSE,148,8.0,10.0,69,0.00,,,0.00,Wunderground v.1.15,2013-02-11 16:25:00,
2013-02-11 11:35:00,77.5,66.5,30.17,SSE,155,8.0,11.0,69,0.00,,,0.00,Wunderground v.1.15,2013-02-11 16:35:00,
2013-02-11 11:45:00,77.8,66.4,30.17,SSE,167,6.0,11.0,68,0.00,,,0.00,Wunderground v.1.15,2013-02-11 16:45:00,
2013-02-11 11:55:00,77.6,66.6,30.16,SSE,159,7.0,10.0,69,0.00,,,0.00,Wunderground v.1.15,2013-02-11 16:55:00,
2013-02-11 12:05:00,78.2,67.2,30.16,SSE,165,6.0,7.0,69,0.00,,,0.00,Wunderground v.1.15,2013-02-11 17:05:00,
2013-02-11 12:10:00,78.1,66.7,30.16,SSE,158,6.0,8.0,68,0.00,,,0.00,Wunderground v.1.15,2013-02-11 17:10:00,
2013-02-11 12:20:00,78.5,67.1,30.16,SSW,194,6.0,7.0,68,0.00,,,0.00,Wunderground v.1.15,2013-02-11 17:20:00,
2013-02-11 12:30:00,78.3,66.9,30.15,SE,138,7.0,7.0,68,0.00,,,0.00,Wunderground v.1.15,2013-02-11 17:30:00,
2013-02-11 12:35:00,78.1,66.7,30.15,SSE,157,7.0,12.0,68,0.00,,,0.00,Wunderground v.1.15,2013-02-11 17:35:00,
2013-02-11 12:40:00,77.9,66.9,30.15,SSE,158,9.0,9.0,69,0.00,,,0.00,Wunderground v.1.15,2013-02-11 17:40:00,
2013-02-11 12:45:00,78.0,67.0,30.15,SSW,195,9.0,10.0,69,0.00,,,0.00,Wunderground v.1.15,2013-02-11 17:45:00,
2013-02-11 12:55:00,77.9,66.9,30.15,SSE,152,8.0,11.0,69,0.00,,,0.00,Wunderground v.1.15,2013-02-11 17:55:00,
2013-02-11 13:00:00,78.5,67.5,30.14,SE,136,6.0,8.0,69,0.00,,,0.00,Wunderground v.1.15,2013-02-11 18:00:00,
2013-02-11 13:10:00,77.9,66.9,30.13,SSE,165,9.0,9.0,69,0.00,,,0.00,Wunderground v.1.15,2013-02-11 18:10:00,
2013-02-11 13:15:00,77.4,66.8,30.13,SSE,149,10.0,10.0,70,0.00,,,0.00,Wunderground v.1.15,2013-02-11 18:15:00,
2013-02-11 13:25:00,77.5,66.9,30.13,South,171,9.0,11.0,70,0.00,,,0.00,Wunderground v.1.15,2013-02-11 18:25:00,
2013-02-11 13:35:00,77.9,67.3,30.12,SSW,205,8.0,11.0,70,0.00,,,0.00,Wunderground v.1.15,2013-02-11 18:35:00,
2013-02-11 13:45:00,77.5,66.9,30.12,South,169,9.0,9.0,70,0.00,,,0.00,Wunderground v.1.15,2013-02-11 18:45:00,
2013-02-11 13:50:00,77.3,67.2,30.12,South,186,9.0,9.0,71,0.00,,,0.00,Wunderground v.1.15,2013-02-11 18:50:00,
2013-02-11 14:00:00,77.5,67.8,30.11,SSW,197,8.0,8.0,72,0.00,,,0.00,Wunderground v.1.15,2013-02-11 19:00:00,
2013-02-11 14:10:00,77.6,67.4,30.11,SW,217,9.0,9.0,71,0.00,,,0.00,Wunderground v.1.15,2013-02-11 19:10:00,
2013-02-11 14:20:00,77.3,67.6,30.11,SSE,162,10.0,10.0,72,0.00,,,0.00,Wunderground v.1.15,2013-02-11 19:20:00,
2013-02-11 14:25:00,77.3,67.6,30.11,South,191,10.0,10.0,72,0.00,,,0.00,Wunderground v.1.15,2013-02-11 19:25:00,
2013-02-11 14:35:00,77.7,68.0,30.10,SSE,161,9.0,12.0,72,0.00,,,0.00,Wunderground v.1.15,2013-02-11 19:35:00,
2013-02-11 14:45:00,77.5,67.8,30.10,South,188,9.0,10.0,72,0.00,,,0.00,Wunderground v.1.15,2013-02-11 19:45:00,
2013-02-11 14:55:00,77.5,68.2,30.10,SE,144,8.0,19.0,73,0.00,,,0.00,Wunderground v.1.15,2013-02-11 19:55:00,
2013-02-11 15:00:00,77.2,67.9,30.10,SSW,212,9.0,9.0,73,0.00,,,0.00,Wunderground v.1.15,2013-02-11 20:00:00,
2013-02-11 15:10:00,77.0,68.1,30.10,SSE,167,9.0,11.0,74,0.00,,,0.00,Wunderground v.1.15,2013-02-11 20:10:00,
2013-02-11 15:20:00,76.6,68.1,30.10,South,171,10.0,11.0,75,0.00,,,0.00,Wunderground v.1.15,2013-02-11 20:20:00,
2013-02-11 15:30:00,76.5,68.0,30.09,SSE,157,10.0,10.0,75,0.00,,,0.00,Wunderground v.1.15,2013-02-11 20:30:00,
2013-02-11 15:35:00,76.4,68.3,30.10,SSE,159,10.0,10.0,76,0.00,,,0.00,Wunderground v.1.15,2013-02-11 20:35:00,
2013-02-11 15:45:00,76.1,68.4,30.09,SE,142,10.0,16.0,77,0.00,,,0.00,Wunderground v.1.15,2013-02-11 20:45:00,
2013-02-11 15:55:00,76.0,68.3,30.09,ESE,117,10.0,10.0,77,0.00,,,0.00,Wunderground v.1.15,2013-02-11 20:55:00,
2013-02-11 16:05:00,75.8,68.1,30.09,SSE,162,9.0,10.0,77,0.00,,,0.00,Wunderground v.1.15,2013-02-11 21:05:00,
2013-02-11 16:10:00,76.0,68.3,30.09,SE,126,9.0,9.0,77,0.00,,,0.00,Wunderground v.1.15,2013-02-11 21:10:00,
2013-02-11 16:20:00,75.6,67.9,30.09,SSE,160,9.0,9.0,77,0.00,,,0.00,Wunderground v.1.15,2013-02-11 21:20:00,
2013-02-11 16:30:00,75.3,68.0,30.08,SSW,194,9.0,12.0,78,0.00,,,0.00,Wunderground v.1.15,2013-02-11 21:30:00,
2013-02-11 16:35:00,75.1,67.8,30.08,SSE,161,9.0,12.0,78,0.00,,,0.00,Wunderground v.1.15,2013-02-11 21:35:00,
2013-02-11 16:45:00,75.3,68.3,30.08,South,183,8.0,9.0,79,0.00,,,0.00,Wunderground v.1.15,2013-02-11 21:45:00,
2013-02-11 16:55:00,74.8,67.8,30.08,South,184,9.0,9.0,79,0.00,,,0.00,Wunderground v.1.15,2013-02-11 21:55:00,
2013-02-11 17:05:00,74.5,67.9,30.08,SSE,164,9.0,11.0,80,0.00,,,0.00,Wunderground v.1.15,2013-02-11 22:05:00,
2013-02-11 17:15:00,74.4,67.8,30.08,SSW,198,8.0,9.0,80,0.00,,,0.00,Wunderground v.1.15,2013-02-11 22:15:00,
2013-02-11 17:20:00,74.4,67.8,30.08,SW,223,7.0,11.0,80,0.00,,,0.00,Wunderground v.1.15,2013-02-11 22:20:00,
2013-02-11 17:30:00,74.0,67.8,30.08,SSE,165,8.0,8.0,81,0.00,,,0.00,Wunderground v.1.15,2013-02-11 22:30:00,
2013-02-11 17:40:00,73.7,67.5,30.08,SSE,167,8.0,8.0,81,0.00,,,0.00,Wunderground v.1.15,2013-02-11 22:40:00,
2013-02-11 17:50:00,73.3,67.5,30.08,South,175,7.0,10.0,82,0.00,,,0.00,Wunderground v.1.15,2013-02-11 22:50:00,
2013-02-11 17:55:00,73.2,67.4,30.08,South,188,6.0,10.0,82,0.00,,,0.00,Wunderground v.1.15,2013-02-11 22:55:00,
2013-02-11 18:05:00,73.0,67.2,30.08,South,169,5.0,7.0,82,0.00,,,0.00,Wunderground v.1.15,2013-02-11 23:05:00,
2013-02-11 18:15:00,72.6,67.1,30.08,South,173,6.0,9.0,83,0.00,,,0.00,Wunderground v.1.15,2013-02-11 23:15:00,
2013-02-11 18:25:00,72.3,67.2,30.08,South,173,5.0,7.0,84,0.00,,,0.00,Wunderground v.1.15,2013-02-11 23:25:00,
2013-02-11 18:30:00,72.2,67.1,30.08,SSE,163,5.0,5.0,84,0.00,,,0.00,Wunderground v.1.15,2013-02-11 23:30:00,
2013-02-11 18:40:00,72.0,66.9,30.09,SSE,162,4.0,7.0,84,0.00,,,0.00,Wunderground v.1.15,2013-02-11 23:40:00,
2013-02-11 18:50:00,71.8,67.0,30.09,South,184,4.0,4.0,85,0.00,,,0.00,Wunderground v.1.15,2013-02-11 23:50:00,
2013-02-11 19:00:00,71.6,66.8,30.09,SSW,201,3.0,6.0,85,0.00,,,0.00,Wunderground v.1.15,2013-02-12 00:00:00,
2013-02-11 19:05:00,71.5,66.8,30.09,South,191,3.0,6.0,85,0.00,,,0.00,Wunderground v.1.15,2013-02-12 00:05:00,
2013-02-11 19:15:00,71.3,66.9,30.08,South,169,4.0,5.0,86,0.00,,,0.00,Wunderground v.1.15,2013-02-12 00:15:00,
2013-02-11 19:25:00,71.1,66.7,30.09,South,183,3.0,4.0,86,0.00,,,0.00,Wunderground v.1.15,2013-02-12 00:25:00,
2013-02-11 19:35:00,71.0,66.6,30.09,South,169,3.0,4.0,86,0.00,,,0.00,Wunderground v.1.15,2013-02-12 00:35:00,
2013-02-11 19:45:00,70.9,66.8,30.09,SSE,166,3.0,4.0,87,0.00,,,0.00,Wunderground v.1.15,2013-02-12 00:45:00,
2013-02-11 19:50:00,70.9,66.8,30.09,SSE,163,3.0,4.0,87,0.00,,,0.00,Wunderground v.1.15,2013-02-12 00:50:00,
2013-02-11 20:00:00,70.8,66.7,30.09,South,185,3.0,4.0,87,0.00,,,0.00,Wunderground v.1.15,2013-02-12 01:00:00,
2013-02-11 20:10:00,70.7,66.6,30.09,SSE,161,2.0,4.0,87,0.00,,,0.00,Wunderground v.1.15,2013-02-12 01:10:00,
2013-02-11 20:20:00,70.7,66.6,30.09,SSW,198,3.0,6.0,87,0.00,,,0.00,Wunderground v.1.15,2013-02-12 01:20:00,
2013-02-11 20:25:00,70.7,66.6,30.10,SE,141,3.0,6.0,87,0.00,,,0.00,Wunderground v.1.15,2013-02-12 01:25:00,
2013-02-11 20:35:00,70.6,66.5,30.09,South,182,2.0,4.0,87,0.00,,,0.00,Wunderground v.1.15,2013-02-12 01:35:00,
2013-02-11 20:45:00,70.5,66.4,30.10,South,171,2.0,4.0,87,0.00,,,0.00,Wunderground v.1.15,2013-02-12 01:45:00,
2013-02-11 20:55:00,70.5,66.4,30.10,South,169,3.0,4.0,87,0.00,,,0.00,Wunderground v.1.15,2013-02-12 01:55:00,
2013-02-11 21:00:00,70.4,66.3,30.10,South,175,2.0,4.0,87,0.00,,,0.00,Wunderground v.1.15,2013-02-12 02:00:00,
2013-02-11 21:10:00,70.4,66.3,30.10,South,169,2.0,2.0,87,0.00,,,0.00,Wunderground v.1.15,2013-02-12 02:10:00,
2013-02-11 21:20:00,70.4,66.3,30.10,SSE,166,2.0,2.0,87,0.00,,,0.00,Wunderground v.1.15,2013-02-12 02:20:00,
2013-02-11 21:30:00,70.3,66.2,30.11,SSE,167,1.0,4.0,87,0.00,,,0.00,Wunderground v.1.15,2013-02-12 02:30:00,
2013-02-11 21:35:00,70.3,66.2,30.11,SSE,167,1.0,4.0,87,0.00,,,0.00,Wunderground v.1.15,2013-02-12 02:35:00,
2013-02-11 21:45:00,70.3,66.6,30.10,SSE,148,2.0,4.0,88,0.00,,,0.00,Wunderground v.1.15,2013-02-12 02:45:00,
2013-02-11 21:55:00,70.2,66.5,30.10,SSE,163,2.0,3.0,88,0.00,,,0.00,Wunderground v.1.15,2013-02-12 02:55:00,
2013-02-11 22:05:00,70.2,66.5,30.10,SSE,166,3.0,4.0,88,0.00,,,0.00,Wunderground v.1.15,2013-02-12 03:05:00,
2013-02-11 22:10:00,70.2,66.5,30.11,South,170,3.0,4.0,88,0.00,,,0.00,Wunderground v.1.15,2013-02-12 03:10:00,
2013-02-11 22:20:00,70.1,66.4,30.11,SSW,206,3.0,3.0,88,0.00,,,0.00,Wunderground v.1.15,2013-02-12 03:20:00,
2013-02-11 22:30:00,70.0,66.3,30.11,SSE,167,2.0,2.0,88,0.00,,,0.00,Wunderground v.1.15,2013-02-12 03:30:00,
2013-02-11 22:40:00,70.0,66.3,30.10,SSE,163,2.0,2.0,88,0.00,,,0.00,Wunderground v.1.15,2013-02-12 03:40:00,
2013-02-11 22:45:00,70.0,66.3,30.10,SSE,148,3.0,3.0,88,0.00,,,0.00,Wunderground v.1.15,2013-02-12 03:45:00,
2013-02-11 22:55:00,69.9,66.2,30.10,SE,146,2.0,4.0,88,0.00,,,0.00,Wunderground v.1.15,2013-02-12 03:55:00,
2013-02-11 23:05:00,69.8,66.1,30.10,SE,130,2.0,4.0,88,0.00,,,0.00,Wunderground v.1.15,2013-02-12 04:05:00,
2013-02-11 23:15:00,69.8,66.4,30.10,SSE,159,3.0,5.0,89,0.00,,,0.00,Wunderground v.1.15,2013-02-12 04:15:00,
2013-02-11 23:20:00,69.8,66.4,30.10,SSE,161,3.0,4.0,89,0.00,,,0.00,Wunderground v.1.15,2013-02-12 04:20:00,
2013-02-11 23:30:00,69.8,66.4,30.10,SSE,159,3.0,3.0,89,0.00,,,0.00,Wunderground v.1.15,2013-02-12 04:30:00,
2013-02-11 23:40:00,69.9,66.2,30.10,SSE,167,3.0,3.0,88,0.00,,,0.00,Wunderground v.1.15,2013-02-12 04:40:00,
2013-02-11 23:50:00,70.0,66.3,30.09,South,172,4.0,4.0,88,0.00,,,0.00,Wunderground v.1.15,2013-02-12 04:50:00,
2013-02-11 23:55:00,70.1,66.4,30.09,SSE,149,4.0,4.0,88,0.00,,,0.00,Wunderground v.1.15,2013-02-12 04:55:00,